Regional Weather Roundup
Issued by NWS

Home | Current Version | Previous Version | Text Only | Print | Product List | Glossary On
Versions: 1 2 3 4 5 6 7 8 9 10 11 12 13 14 15 16 17 18 19 20 21 22 23 24 25 26 27 28
000
ASUS42 KTBW 230410
RWRFL
FLORIDA REGIONAL WEATHER ROUNDUP
NATIONAL WEATHER SERVICE TAMPA BAY RUSKIN FL
1200 AM EDT THU OCT 23 2014

NOTE: "FAIR" INDICATES FEW OR NO CLOUDS BELOW 12,000 FEET WITH NO
SIGNIFICANT WEATHER AND/OR OBSTRUCTIONS TO VISIBILITY.


FLZ001>010-012>015-112-114-115-230500-
PANHANDLE FLORIDA

CITY           SKY/WX    TMP DP  RH WIND       PRES   REMARKS
PENSACOLA      CLEAR     61  48  62 N7        30.08S
PENSACOLA NAS  CLEAR     59  47  64 N7        30.08S
MILTON NAS     CLEAR     52  44  74 N3        30.09F
CRESTVIEW      CLEAR     52  46  80 NE3       30.10S
DUKE FIELD     CLEAR     49  45  87 CALM      30.08S
VALPARAISO     CLEAR     55  47  72 N6        30.08S
MARY ESTHER    CLEAR     56  43  60 NE7       30.07F
PANAMA CITY    FAIR      52  47  83 N5        30.07S
TYNDALL AFB    CLEAR     63  49  59 NE8       30.07S
APALACHICOLA   CLEAR     61  49  64 NE5       30.05S

STATION/POSITION SKY/WX   TEMP    WIND        PRES    WAVE   SWELL
                          AIR SEA DIR/SP/G            HT/PER HT/PER
                          (F)     (DEG/KT/KT) (MB)    (FT/S) (FT/S)
30.1N   87.6W              71 78   30/ 17/ 21 1017.8R   3/ 4
29.2N   88.2W              75 79   30/ 17/ 19 1017.7F   3/ 5
28.8N   86.0W              76 80   40/ 16/ 19 1016.3F   3/ 5
PANAMA CITY BEAC           61 77   20/  4/  6 1018.2F
CAPE SAN BLAS    NOT AVBL
TOWER C                    71      30/ 20/ 23 1016.7F
28.5N   84.5W              76 81   50/ 16/ 19 1015.6F   3/ 5

$$
FLZ011-016>038-118-127-128-134-139-239-230500-
NORTH FLORIDA

CITY           SKY/WX    TMP DP  RH WIND       PRES   REMARKS
MARIANNA       LGT RAIN  52  48  86 CALM      30.08
TALLAHASSEE    CLEAR     60  45  57 N3        30.07S
PERRY          CLEAR     57  48  72 NE3       30.06F
CROSS CITY       N/A     54  50  86 CALM      30.04F
LAKE CITY      FAIR      52  50  93 CALM      30.06F
GAINESVILLE    PTCLDY    58  53  84 N3        30.04F
MAYPORT NAS    CLEAR     64  49  57 NW5       30.05F
JACKSONVILLE   PTCLDY    53  52  96 CALM      30.06S
JAX NAS        PTCLDY    69  49  48 N14       30.06F
JAX CRAIG      CLEAR     62  49  62 N5        30.05F
JAX CECIL      CLEAR     48  48 100 CALM      30.06F
FERNANDINA BEA FAIR      66  46  48 N5        30.05S
ST AUGUSTINE   MOCLDY    67  52  58 NE8       30.05F

STATION/POSITION SKY/WX   TEMP    WIND        PRES    WAVE   SWELL
                          AIR SEA DIR/SP/G            HT/PER HT/PER
                          (F)     (DEG/KT/KT) (MB)    (FT/S) (FT/S)
SHELL POINT                63      20/  7/ 10   N/A
KEATON BEACH               58      40/  4/  6 1017.7F
CEDAR KEY                  65      60/ 13/ 15 1017.2F
FERNANDINA                 67 75  360/  9/ 11 1017.3F
30.7N   81.3W                 77                N/A     3/ 5
MAYPORT                    65 77  350/  7/  8   N/A
31.4N   80.9W              68 75   10/ 12/ 16 1017.9S   2/ 6   2/ 6
ST AUGUSTINE               69      50/ 13/ 14 1017.6F

$$
FLZ040-043>046-052-053-057-058-063-144-230500-
INTERIOR CENTRAL FLORIDA

CITY           SKY/WX    TMP DP  RH WIND       PRES   REMARKS
OCALA          CLOUDY    63  52  67 NE5       30.02F
THE VILLAGES     N/A     64  55  72 N8        29.92F
LEESBURG       PTCLDY    65  56  72 NE9       30.02F
SANFORD        PTCLDY    65  57  75 N7        30.00F
ORLANDO EXEC   PTCLDY    69  59  70 NE7       30.00F
ORLANDO INTL   PTCLDY    67  60  78 NE9       30.00F
WINTER HAVEN   MOCLDY    68  60  75 NE8       30.01S
LAKELAND       PTCLDY    68  61  77 NE9       29.99F
BARTOW         FAIR      68  61  77 NE9       30.00F
OKEECHOBEE       N/A     70  64  83 MISG        N/A

$$
FLZ041-047-054-059-064-141-147-230500-
EAST CENTRAL FLORIDA

CITY           SKY/WX    TMP DP  RH WIND       PRES   REMARKS
DAYTONA BEACH  PTCLDY    68  52  56 NE12      30.01F
DELAND         PTCLDY    63  55  77 N5        30.02F
JFK SPACE CTR  MOCLDY    70  58  65 NE12      29.99F
CAPE CANAVERAL MOCLDY    72  59  64 NE10      29.98S
PATRICK AFB    MOCLDY    74  62  66 N16       29.97F
MELBOURNE      MOCLDY    74  62  66 NE10      29.97F
VERO BEACH     CLOUDY    74  64  71 NE8       29.96F
FT PIERCE      CLOUDY    75  63  66 NE3       29.95F
STUART         CLOUDY    77  64  65 NE9       29.96F

STATION/POSITION SKY/WX   TEMP    WIND        PRES    WAVE   SWELL
                          AIR SEA DIR/SP/G            HT/PER HT/PER
                          (F)     (DEG/KT/KT) (MB)    (FT/S) (FT/S)
28.5N   80.2W              75 82   30/ 14/ 17 1015.4S
28.9N   78.5W              74 81   10/ 14/ 16 1015.3F   4/ 6   2/11
TRIDENT PIER               71 80   10/  6/  7 1014.9F
28.4N   80.5W                 80                N/A     3/ 4
27.6N   80.2W                 80                N/A     3/ 4

$$
FLZ050-056-061-142-242-148-248-149-249-151-251-155-255-
160-260-230500-
WEST CENTRAL FLORIDA

CITY           SKY/WX    TMP DP  RH WIND       PRES   REMARKS
CRYSTAL RIVER  FAIR      63  54  72 NE6       30.01F
INVERNESS      FAIR      63  55  77 NE5       30.02F
BROOKSVILLE    PTCLDY    64  58  80 NE7       30.01F
ZEPHYRHILLS    FAIR      63  59  88 NE5       30.01S
CLEARWATER     PTCLDY    72  63  73 NE14G22   29.98S
TAMPA INTL     MOCLDY    70  60  70 NE10G20   29.99S
TAMPA EXEC     PTCLDY    70  61  73 NE5       29.99F
PLANT CITY     PTCLDY    70  63  78 NE7       30.01S
MACDILL AFB    PTCLDY    70  65  83 E16       29.98S
ST PETERSBURG  PTCLDY    75  65  70 E18       29.97S
SARASOTA       CLOUDY    72  64  76 E12       29.95S
VENICE           N/A     73  66  78 MISG      29.96S

STATION/POSITION SKY/WX   TEMP    WIND        PRES    WAVE   SWELL
                          AIR SEA DIR/SP/G            HT/PER HT/PER
                          (F)     (DEG/KT/KT) (MB)    (FT/S) (FT/S)
CEDAR KEY                  65      60/ 13/ 15 1017.2F
28.5N   84.5W              76 81   50/ 16/ 19 1015.6F   3/ 5
27.3N   84.3W                 81                N/A     4/ 5
CLEARWATER BEACH NOT AVBL
MIDDLE TAMPA BAY           73      90/ 14/ 18 1015.0F
VENICE                     74 81   60/ 13/ 16 1013.9R

$$
FLZ066-069-070-075>078-162-262-165-265-230500-
SOUTHWEST FLORIDA AND KEYS

CITY           SKY/WX    TMP DP  RH WIND       PRES   REMARKS
PUNTA GORDA    CLOUDY    74  67  78 NE9       29.97R
FT MYERS       CLOUDY    76  69  79 E12       29.93S
SOUTHWEST INTL CLOUDY    73  70  90 E7        29.94S
NAPLES         CLOUDY    76  72  87 E3        29.93S
MARATHON       LGT RAIN  75  75 100 E6        29.93S
KEY WEST NAS   CLOUDY   N/A N/A N/A NE7       29.92F
KEY WEST INTL  LGT RAIN  75  74  96 NE6       29.93S

STATION/POSITION SKY/WX   TEMP    WIND        PRES    WAVE   SWELL
                          AIR SEA DIR/SP/G            HT/PER HT/PER
                          (F)     (DEG/KT/KT) (MB)    (FT/S) (FT/S)
VENICE                     74 81   60/ 13/ 16 1013.9R
NAPLES                     76 83  100/  1/  3 1014.0F
26.0N   85.6W              80 82   50/ 17/ 23 1013.4S   5/ 7
DRY TORTUGAS               78     120/ 14/ 15 1013.1R
NW FL BAY                  76      80/ 10/ 11 1013.6S
SAND KEY                   77      80/ 16/ 19 1013.0F
SOMBRERO KEY               77      90/ 15/ 16 1013.9R
LONG KEY                   77 79   80/  8/  9 1014.3R
MOLASSES REEF              78 83   60/  8/ 10 1013.4F

$$
FLZ067-068-071>074-168-172>174-230500-
SOUTHEAST FLORIDA

CITY           SKY/WX    TMP DP  RH WIND       PRES   REMARKS
W PALM BEACH   CLOUDY    79  70  74 N7        29.92F
FT LAUDER-EXEC CLOUDY    75  70  84 CALM      29.93F
FT LAUDERDALE  CLOUDY    76  70  82 NE6       29.92F
POMPANO BEACH  LGT RAIN  78  74  87 SE3       29.93F FOG
PEMBROKE PINES CLOUDY    75  73  93 CALM      29.94F
OPA LOCKA      CLOUDY    76  74  93 CALM      29.93F
MIAMI          CLOUDY    75  73  93 CALM      29.93F
WEST KENDALL   CLOUDY    76  73  91 CALM      29.93F
HOMESTEAD      CLOUDY    74  73  94 E2        29.93F

STATION/POSITION SKY/WX   TEMP    WIND        PRES    WAVE   SWELL
                          AIR SEA DIR/SP/G            HT/PER HT/PER
                          (F)     (DEG/KT/KT) (MB)    (FT/S) (FT/S)
PORT EVERGLADES            77      50/  8/ 15 1013.4
VIRGINIA KEY               77 81  140/  3/  4 1013.8S
LAKE WORTH                 80 83   30/ 11/ 13 1013.2F
FOWEY ROCKS                78 81  120/  8/  8 1013.6F
SETTLEMENT POINT           80      60/  6/  7 1014.3F

$$




USA.gov is the U.S. government's official web portal to all federal, state and local government web resources and services.